[[{"header":{"parameterUnit":"m.s-1","parameterCategory":1,"la1":30.2992,"la2":30.254,"lo1":-89.0895,"lo2":-89.0443,"dy":0.0025,"dx":0.0025,"nx":19,"ny":19,"refTime":"2026-03-08T09:00:00:Z","depth":0,"parameterNumber":2,"parameterNumberName":"U-component_of_WINDS"},"data":[0,0,0,-1.9508,-1.9511,-1.9677,-1.9678,-1.9882,-1.9884,0,0,0,0,0,0,0,0,0,0,0,-1.9452,-1.9453,-1.9508,-1.9512,-1.9677,-1.9678,-1.9881,-1.9884,0,0,0,0,0,0,0,0,0,0,0,-1.9452,-1.9453,-1.9454,-1.9512,-1.9677,-1.9678,-1.9881,-1.9759,0,0,0,0,0,0,0,0,0,0,-1.96,-1.9542,-1.9453,-1.9455,-1.9513,-1.9676,-1.9678,-1.9754,-1.9767,-1.9803,0,-1.9831,0,-1.986,-1.9897,-1.9897,0,0,0,-1.9517,-1.9531,-1.9581,-1.9455,-1.9514,-1.9676,-1.9604,-1.9761,-1.9776,-1.9821,-1.9834,-1.9842,-1.9864,-1.9898,-1.9899,-2.0083,-2.0083,0,0,-1.9508,-1.9479,-1.957,-1.959,-1.9562,-1.9598,-1.9609,-1.977,-1.9784,-1.9835,-1.9847,-1.9867,-1.9899,-1.9901,-2.0082,-2.0083,0,0,0,-1.9478,-1.9472,-1.9519,-1.9582,-1.9612,-1.9603,-1.9615,-1.9777,-1.9795,-1.9849,-1.987,-1.99,-1.9903,-2.0082,-2.0083,-2.0083,0,0,0,-1.9473,-1.9455,-1.9515,-1.9499,-1.9609,-1.9696,-1.9618,-1.9784,-1.9803,-1.9869,-1.99,-1.9904,-2.0081,-2.0082,-2.0081,-2.0087,0,0,0,-1.9444,-1.9452,-1.9473,-1.9497,-1.9567,-1.9694,-1.9721,-1.9788,-1.9815,-1.9897,-1.9905,-2.0081,-2.0082,-2.008,-2.0085,-2.0126,0,0,0,-1.9405,-1.9472,-1.9473,-1.9556,-1.9565,-1.9693,-1.9721,-1.9818,-1.9889,-1.9901,-2.0081,-2.0082,-2.008,-2.0084,-2.0125,-2.0155,-2.0164,0,0,-1.9474,-1.9479,-1.9531,-1.9536,-1.9655,-1.967,-1.9791,-1.9884,-1.992,-2.0027,-2.0032,-2.0082,-2.0085,-2.0126,-2.0232,-2.0239,0,0,0,-1.9543,-1.9579,-1.9617,-1.9682,-1.9753,-1.9816,-1.9894,-1.9929,-2.002,-1.9968,-2.0109,-2.0112,-2.0137,-2.0153,-2.0159,-2.0183,-2.0089,-2.0089,-2.0088,-1.9598,-1.9638,-1.9725,-1.9786,-1.9849,-1.9928,-1.9983,-2.0044,-2.0068,-2.01,-2.0132,-2.0191,-2.0208,-2.0213,-2.0237,-2.0152,-2.0152,-2.0152,-2.0152,-1.9701,-1.9758,-1.9787,-1.9882,-1.9925,-2.0006,-2.0086,-2.01,-2.0182,-2.017,-2.0195,-2.0177,-2.022,-2.0243,-2.0153,-2.0152,-2.0152,-2.0152,-2.0152,-1.9741,-1.9775,-1.9815,-1.9913,-1.9984,-2.0045,-2.0122,-2.0159,-2.0195,-2.0219,-2.0256,-2.0257,-2.0261,-2.0235,-2.0235,-2.0235,-2.0235,-2.0235,-2.0235,-1.9765,-1.9811,-1.987,-1.9951,-1.9998,-2.0064,-2.0145,-2.0192,-2.0255,-2.0276,-2.0277,-2.0297,-2.0217,-2.0195,-2.0239,-2.0238,-2.0238,-2.0237,-2.0237,-1.9853,-1.9839,-1.993,-1.9977,-2.0076,-2.0144,-2.0191,-2.0284,-2.033,-2.0367,-2.0383,-2.0317,-2.0326,-2.0322,-2.0304,-2.0373,-2.0373,-2.0373,-2.0373,-1.9886,-1.9894,-1.9995,-2.0066,-2.0141,-2.0193,-2.0296,-2.036,-2.0425,-2.0456,-2.0451,-2.0431,-2.0425,-2.0438,-2.0431,-2.0415,-2.0511,-2.0511,-2.0511,-1.9941,-1.9958,-2.0038,-2.0098,-2.0179,-2.0247,-2.0346,-2.0429,-2.0499,-2.0518,-2.048,-2.0474,-2.0443,-2.0431,-2.0447,-2.0434,-2.0406,0,0]},{"header":{"parameterUnit":"m.s-1","parameterCategory":1,"la1":30.2992,"la2":30.254,"lo1":-89.0895,"lo2":-89.0443,"dy":0.0025,"dx":0.0025,"nx":19,"ny":19,"refTime":"2026-03-08T09:00:00:Z","depth":0,"parameterNumber":3,"parameterNumberName":"V-component_of_WINDS"},"data":[0,0,0,2.2435,2.2437,2.2566,2.2566,2.2708,2.2709,0,0,0,0,0,0,0,0,0,0,0,2.2384,2.2385,2.2435,2.2437,2.2566,2.2566,2.2708,2.2709,0,0,0,0,0,0,0,0,0,0,0,2.2384,2.2385,2.2386,2.2438,2.2566,2.2566,2.2708,2.2618,0,0,0,0,0,0,0,0,0,0,2.2497,2.2439,2.2385,2.2386,2.2439,2.2565,2.2566,2.2614,2.2624,2.2641,0,2.2654,0,2.2684,2.2717,2.2718,0,0,0,2.2446,2.2431,2.2477,2.2386,2.244,2.2565,2.251,2.262,2.2631,2.2653,2.2656,2.2662,2.2686,2.2718,2.2719,2.2793,2.2793,0,0,2.2439,2.24,2.247,2.2484,2.2464,2.2506,2.2514,2.2627,2.2627,2.2657,2.2666,2.2689,2.2719,2.272,2.2793,2.2793,0,0,0,2.2413,2.2395,2.2439,2.2477,2.2502,2.251,2.2519,2.2622,2.2639,2.2667,2.269,2.272,2.2721,2.2793,2.2793,2.2754,0,0,0,2.2409,2.238,2.2435,2.2413,2.25,2.2564,2.2511,2.2631,2.2645,2.2689,2.272,2.2722,2.2793,2.2793,2.2755,2.2742,0,0,0,2.238,2.2377,2.2391,2.241,2.2465,2.2563,2.2587,2.2635,2.2659,2.2718,2.2723,2.2793,2.2793,2.2757,2.2744,2.2751,0,0,0,2.2338,2.2353,2.239,2.2416,2.2463,2.2539,2.2587,2.2644,2.269,2.272,2.2793,2.2793,2.2757,2.2745,2.2752,2.275,2.2746,0,0,2.2335,2.2351,2.237,2.2407,2.2466,2.2522,2.2575,2.2652,2.2692,2.2756,2.2759,2.2755,2.2744,2.2751,2.2735,2.2732,0,0,0,2.2356,2.2368,2.2393,2.2436,2.2497,2.2549,2.2622,2.2651,2.2709,2.2718,2.2761,2.2755,2.2761,2.2762,2.2759,2.2767,2.2792,2.2792,2.2792,2.2295,2.2348,2.2383,2.2451,2.2492,2.257,2.2608,2.2661,2.2699,2.2708,2.2727,2.2712,2.2712,2.271,2.2717,2.2731,2.2731,2.2731,2.2731,2.2297,2.2323,2.2378,2.2431,2.2486,2.253,2.2606,2.2633,2.2681,2.2701,2.2709,2.2725,2.2704,2.2713,2.2728,2.2729,2.2729,2.2729,2.2729,2.2263,2.2285,2.2322,2.2392,2.244,2.2509,2.2554,2.2602,2.2648,2.2655,2.2682,2.2682,2.2689,2.2665,2.2665,2.2665,2.2665,2.2665,2.2665,2.2212,2.2256,2.229,2.2358,2.2394,2.2447,2.2526,2.2562,2.2614,2.2645,2.2646,2.2683,2.2693,2.2694,2.2664,2.2664,2.2664,2.2664,2.2664,2.2193,2.2206,2.2258,2.2294,2.238,2.2425,2.2487,2.2556,2.2593,2.2614,2.2651,2.265,2.2669,2.2672,2.2673,2.264,2.264,2.264,2.264,2.2164,2.218,2.2245,2.23,2.2359,2.2421,2.2478,2.2541,2.2607,2.2633,2.2645,2.2651,2.2652,2.267,2.2673,2.2675,2.2643,2.2643,2.2643,2.2156,2.218,2.2219,2.2287,2.2359,2.2418,2.2474,2.2533,2.2611,2.2644,2.2654,2.2654,2.2665,2.2665,2.2697,2.27,2.2705,0,0]}]]